Location: Newark
(55.8871°S, 37.4681°W)
Time: 13:11:39
(UTC+00:00)

OTV 5 (USA 277) - Visible Passes

Search period start: 25 August 2019 00:00
Search period end: 04 September 2019 00:00
Orbit: 305 x 329 km, 54.5° (Epoch: 20 August)

Date Brightness Start Highest point End Pass type
(mag) Time Alt. Az. Time Alt. Az. Time Alt. Az.
31 Aug ? 08:13:23 10° NNE 08:14:08 11° NE 08:14:54 10° ENE visible
01 Sep ? 08:26:21 10° NNW 08:28:24 19° NNE 08:30:28 10° E visible
03 Sep ? 07:21:46 10° N 07:23:21 14° NE 07:24:59 10° ENE visible
